Hinckley, MN

8:25 AM CDT on October 20, 2017 (GMT -0500)
Hinckley

Weather History for K04W - March, 2013

Change the Weather History Date:

Thursday, March 7, 2013

  Actual Average (KJMR) Record (KJMR)
Temperature  
Mean Temperature 12 °F -  
Max Temperature 32 °F 37 °F 75 °F (1987)
Min Temperature -7 °F 10 °F -20 °F (1945)
Degree Days  
Heating Degree Days 52    
Moisture  
Dew Point 5 °F    
Average Humidity 70    
Maximum Humidity 92    
Minimum Humidity 44    
Precipitation  
Precipitation 0.00 in - - ()
Sea Level Pressure  
Sea Level Pressure 30.34 in    
Wind  
Wind Speed 1 mph (ESE)    
Max Wind Speed 7 mph    
Max Gust Speed -    
Visibility 10 miles    
Events      
Averages and records for this station are not official NWS values.
T = Trace of Precipitation, MM = Missing Value Source: NWS Daily Summary

Daily Weather History Graph

Daily Weather History Graph

Search for Another Location

Airport or City:

Trip Planner

Search our weather history database for the weather conditions in past years. The results will help you decide how hot, cold, wet, or windy it might be!

Date:

Astronomy

Mar. 07, 2013 Rise Set
Actual Time 6:38 AM CST 6:06 PM CST
Civil Twilight 6:09 AM CST 6:36 PM CST
Nautical Twilight 5:34 AM CST 7:11 PM CST
Astronomical Twilight 4:59 AM CST 7:46 PM CST
Moon 3:50 AM CST (3/7) 1:44 PM CST (3/7)
Length of Visible Light 12h 27m
Length of Day
11h 27m
Waning Crescent, 20% of the Moon is Illuminated
Mar 7
Waning Crescent
Mar 11
New
Mar 19
First Quarter
Mar 27
Full
Apr 2
Last Quarter

Hourly Weather History & Observations

Time (CST) Temp. Windchill Dew Point Humidity Pressure Visibility Wind Dir Wind Speed Gust Speed Precip Events Conditions
12:15 AM -0.4 °F - -4.0 °F 85% 30.34 in 10.0 mi Calm Calm - N/A   Clear
12:35 AM -0.4 °F - -4.0 °F 85% 30.35 in 10.0 mi Calm Calm - N/A   Clear
12:55 AM -2.2 °F - -5.8 °F 85% 30.34 in 10.0 mi Calm Calm - N/A   Clear
1:15 AM 1.4 °F - -2.2 °F 85% 30.34 in 10.0 mi Calm Calm - N/A   Clear
1:35 AM -4.0 °F - -5.8 °F 92% 30.34 in 10.0 mi Calm Calm - N/A   Clear
1:55 AM -2.2 °F - -5.8 °F 85% 30.35 in 10.0 mi Calm Calm - N/A   Clear
2:15 AM -0.4 °F - -5.8 °F 78% 30.34 in 10.0 mi Calm Calm - N/A   Clear
2:35 AM -4.0 °F - -7.6 °F 85% 30.35 in 10.0 mi Calm Calm - N/A   Clear
3:15 AM -4.0 °F - -7.6 °F 85% 30.34 in 10.0 mi Calm Calm - N/A   Clear
3:35 AM -4.0 °F - -7.6 °F 85% 30.34 in 10.0 mi Calm Calm - N/A   Clear
3:55 AM -4.0 °F - -5.8 °F 92% 30.34 in 10.0 mi Calm Calm - N/A   Clear
4:15 AM -4.0 °F - -7.6 °F 85% 30.35 in 10.0 mi Calm Calm - N/A   Clear
4:35 AM -5.8 °F - -7.6 °F 92% 30.36 in 10.0 mi Calm Calm - N/A   Clear
4:55 AM -5.8 °F - -9.4 °F 84% 30.36 in 10.0 mi Calm Calm - N/A   Clear
5:15 AM -5.8 °F - -9.4 °F 84% 30.35 in 10.0 mi Calm Calm - N/A   Clear
5:35 AM -5.8 °F - -7.6 °F 92% 30.36 in 10.0 mi Calm Calm - N/A   Clear
5:55 AM -5.8 °F - -9.4 °F 84% 30.36 in 10.0 mi Calm Calm - N/A   Clear
6:15 AM -5.8 °F - -9.4 °F 84% 30.36 in 10.0 mi Calm Calm - N/A   Clear
6:35 AM -5.8 °F - -9.4 °F 84% 30.36 in 10.0 mi Calm Calm - N/A   Clear
6:55 AM -7.6 °F - -13.0 °F 77% 30.36 in 10.0 mi Calm Calm - N/A   Clear
7:15 AM -7.6 °F - -11.2 °F 84% 30.37 in 10.0 mi Calm Calm - N/A   Clear
7:35 AM -5.8 °F - -9.4 °F 84% 30.36 in 10.0 mi Calm Calm - N/A   Clear
7:55 AM -4.0 °F - -5.8 °F 92% 30.36 in 10.0 mi Calm Calm - N/A   Clear
8:15 AM 1.4 °F - -2.2 °F 85% 30.37 in 10.0 mi Calm Calm - N/A   Clear
8:35 AM 3.2 °F - 1.4 °F 92% 30.37 in 10.0 mi Calm Calm - N/A   Clear
8:55 AM 12.2 °F 6.1 °F 8.6 °F 85% 30.38 in 10.0 mi East 3.5 mph - N/A   Clear
9:15 AM 10.4 °F - 8.6 °F 92% 30.38 in 10.0 mi Calm Calm - N/A   Clear
9:35 AM 12.2 °F - 10.4 °F 92% 30.39 in 10.0 mi Calm Calm - N/A   Clear
9:55 AM 17.6 °F - 14.0 °F 86% 30.38 in 10.0 mi Calm Calm - N/A   Clear
10:15 AM 21.2 °F 13.6 °F 14.0 °F 74% 30.38 in 10.0 mi East 5.8 mph - N/A   Clear
10:35 AM 23.0 °F 17.0 °F 14.0 °F 68% 30.38 in 10.0 mi ESE 4.6 mph - N/A   Clear
10:55 AM 24.8 °F 19.1 °F 14.0 °F 64% 30.38 in 10.0 mi ESE 4.6 mph - N/A   Clear
11:15 AM 26.6 °F 22.6 °F 14.0 °F 59% 30.38 in 10.0 mi East 3.5 mph - N/A   Clear
11:35 AM 26.6 °F 20.0 °F 14.0 °F 59% 30.38 in 10.0 mi SSW 5.8 mph - N/A   Clear
11:55 AM 26.6 °F - 14.0 °F 59% 30.37 in 10.0 mi Calm Calm - N/A   Clear
12:15 PM 26.6 °F - 14.0 °F 59% 30.36 in 10.0 mi Calm Calm - N/A   Clear
12:35 PM 28.4 °F 23.3 °F 14.0 °F 55% 30.35 in 10.0 mi ESE 4.6 mph - N/A   Clear
12:55 PM 28.4 °F 21.2 °F 14.0 °F 55% 30.35 in 10.0 mi ESE 6.9 mph - N/A   Clear
1:15 PM 30.2 °F 24.3 °F 14.0 °F 51% 30.34 in 10.0 mi SE 5.8 mph - N/A   Clear
1:35 PM 30.2 °F 23.4 °F 12.2 °F 47% 30.33 in 10.0 mi SE 6.9 mph - N/A   Clear
1:55 PM 32.0 °F 26.4 °F 12.2 °F 44% 30.33 in 10.0 mi ESE 5.8 mph - N/A   Clear
2:15 PM 32.0 °F 26.4 °F 14.0 °F 48% 30.32 in 10.0 mi ESE 5.8 mph - N/A   Scattered Clouds
2:35 PM 32.0 °F 27.5 °F 14.0 °F 48% 30.32 in 10.0 mi SE 4.6 mph - N/A   Scattered Clouds
2:55 PM 32.0 °F 28.7 °F 14.0 °F 48% 30.32 in 10.0 mi SSE 3.5 mph - N/A   Clear
3:15 PM 32.0 °F 28.7 °F 14.0 °F 48% 30.32 in 10.0 mi ESE 3.5 mph - N/A   Clear
3:35 PM 32.0 °F 26.4 °F 14.0 °F 48% 30.32 in 10.0 mi SE 5.8 mph - N/A   Clear
4:15 PM 32.0 °F 25.6 °F 14.0 °F 48% 30.31 in 10.0 mi ESE 6.9 mph - N/A   Clear
4:35 PM 32.0 °F 26.4 °F 14.0 °F 48% 30.31 in 10.0 mi SSE 5.8 mph - N/A   Clear
4:55 PM 32.0 °F 27.5 °F 14.0 °F 48% 30.31 in 10.0 mi SE 4.6 mph - N/A   Clear
5:15 PM 32.0 °F 26.4 °F 12.2 °F 44% 30.30 in 10.0 mi SE 5.8 mph - N/A   Clear
5:35 PM 30.2 °F 23.4 °F 12.2 °F 47% 30.30 in 10.0 mi SE 6.9 mph - N/A   Clear
5:55 PM 30.2 °F 25.4 °F 12.2 °F 47% 30.30 in 10.0 mi SE 4.6 mph - N/A   Clear
7:55 PM 26.6 °F 21.2 °F 12.2 °F 55% 30.30 in 10.0 mi ESE 4.6 mph - N/A   Clear
8:15 PM 26.6 °F 22.6 °F 12.2 °F 55% 30.30 in 10.0 mi ESE 3.5 mph - N/A   Clear
8:35 PM 26.6 °F 21.2 °F 12.2 °F 55% 30.30 in 10.0 mi ESE 4.6 mph - N/A   Clear
8:55 PM 24.8 °F 19.1 °F 12.2 °F 59% 30.29 in 10.0 mi ESE 4.6 mph - N/A   Clear
9:15 PM 24.8 °F 19.1 °F 12.2 °F 59% 30.29 in 10.0 mi ESE 4.6 mph - N/A   Clear
9:35 PM 23.0 °F 18.4 °F 12.2 °F 63% 30.29 in 10.0 mi ESE 3.5 mph - N/A   Clear
9:55 PM 23.0 °F 18.4 °F 10.4 °F 59% 30.29 in 10.0 mi East 3.5 mph - N/A   Clear
10:15 PM 21.2 °F - 10.4 °F 63% 30.29 in 10.0 mi Calm Calm - N/A   Clear
10:35 PM 21.2 °F - 10.4 °F 63% 30.29 in 10.0 mi Calm Calm - N/A   Clear
10:55 PM 21.2 °F - 12.2 °F 68% 30.30 in 10.0 mi Calm Calm - N/A   Clear
11:15 PM 17.6 °F - 10.4 °F 73% 30.30 in 10.0 mi Calm Calm - N/A   Clear
11:35 PM 19.4 °F 14.3 °F 12.2 °F 74% 30.30 in 10.0 mi ESE 3.5 mph - N/A   Clear
11:55 PM 23.0 °F 18.4 °F 12.2 °F 63% 30.30 in 10.0 mi ESE 3.5 mph - N/A   Clear